sat.trackr.live / text

‹ back to catalog

STARLINK-34582

NORAD 64781 · 2025-147AC

PAYLOAD ACTIVE UNKNOWN

§ Identity

Operator
Country
US
Launch date
2025-07-08
Launch site
AFETR
Launch vehicle
Mass (kg)
RCS (m²)

Purposes: comms

External: N2YO · Heavens-Above · Gunter

§ Orbital elements

Epoch: 2026-09-20T16:59:50.026560Z

Period
93.85 min
Inclination
53.1593°
Eccentricity
0.0001000
Mean motion
15.34416622 rev/d
Perigee alt
462.0 km
Apogee alt
463.3 km
Semi-major
6,840.8 km
B*
6.6160e-4
RAAN
52.3892°
Arg perigee
98.8792°
Mean anomaly
261.2324°
Rev number
6,860

§ Raw data

STARLINK-345821 64781U 25147AC  26263.70821790  .00022054  00000+0  66160-3 0  99922 64781  53.1593  52.3892 0001000  98.8792 261.2324 15.34416622 68601

JSON: /api/v1/satellites/64781 · /tle

For live sub-satellite position, see the globe view (requires WebGL).

§ Visibility from observer

Set your observer location to see the next 7 days of passes ≥ 10°. The values pass through the URL so the page stays shareable.

No JS? Fill the form by hand. The geolocation button needs JavaScript.